Regional Weather Roundup
Issued by NWS Cleveland, OH

Home | Current Version | Previous Version | Graphics & Text | Print | Product List | Glossary On
Versions: 1 2 3 4 5 6 7 8 9 10 11 12 13 14 15 16 17 18 19 20 21 22 23 24 25 26 27 28 29 30 31 32 33 34 35 36 37 38 39 40 41 42 43 44 45 46 47 48 49 50
000
ASUS41 KCLE 300210
RWRCLE
OHIO REGIONAL WEATHER ROUNDUP
NATIONAL WEATHER SERVICE WILMINGTON, OH
1000 PM EDT MON JUN 29 2015

NOTE: "FAIR" INDICATES FEW OR NO CLOUDS BELOW 12,000 FEET WITH NO
SIGNIFICANT WEATHER AND/OR OBSTRUCTIONS TO VISIBILITY.

OHZ001>008-015>018-024>027-034-035-043-044-300300-
   NORTHWEST OHIO

CITY           SKY/WX    TMP DP  RH WIND       PRES   REMARKS
DEFIANCE       CLOUDY    63  59  87 CALM      29.83S
FINDLAY        CLOUDY    63  60  90 SE3       29.81F
TOLEDO EXPRESS CLOUDY    62  58  86 SE3       29.83S
TOLEDO EXEC    CLOUDY    64  57  78 SE7       29.84S
LIMA           CLOUDY    63  61  93 CALM      29.82F
$$

OHZ009>014-019>023-028>033-038-089-300300-
   NORTHEAST OHIO

CITY           SKY/WX    TMP DP  RH WIND       PRES   REMARKS
CLE-HOPKINS    CLOUDY    65  57  75 SE10      29.86S
CLE-LAKEFRONT  CLOUDY    67  55  65 SE12      29.83S
CUY CO. ARPT   CLOUDY    66  57  72 SE14      29.86S
LORAIN-ELYRIA  CLOUDY    63  57  81 SE9       29.84F
ASHTABULA      CLOUDY    65  58  78 E3        29.88S
AKRON-CANTON   RAIN      63  58  83 SE8       29.85S
WOOSTER        CLOUDY    61  60  97 E5        29.85S
MANSFIELD      CLOUDY    61  61 100 SE6       29.84S FOG
YOUNGSTOWN     LGT RAIN  62  58  86 E10       29.87F
$$

OHZ042-051>053-060>062-070>072-077>081-300300-
  SOUTHWEST OHIO

CITY           SKY/WX    TMP DP  RH WIND       PRES   REMARKS
CINC-COVINGTON PTCLDY    70  65  84 SW3       29.83S
CINC-LUNKEN    PTCLDY    68  66  93 CALM      29.82S
HAMILTON       MOCLDY    69  67  93 CALM      29.82S FOG
DAYTON         MOCLDY    65  63  93 CALM      29.83F
WRIGHT-PAT AFB CLEAR     65  63  92 CALM      29.82S
DAYTON GENERAL MOCLDY    66  64  93 CALM      29.82S
WILMINGTON     MOCLDY    67  64  90 CALM      29.82R
$$

OHZ036-037-039>041-045>050-054>059-063>069-073>076-082>088-300300-
  CENTRAL AND SOUTHEAST OHIO

CITY           SKY/WX    TMP DP  RH WIND       PRES   REMARKS
COLUMBUS       PTCLDY    65  62  90 CALM      29.81S
OSU AIRPORT    CLOUDY    65  63  93 CALM      29.82S
BOLTON FIELD   CLOUDY    66  65  96 CALM      29.82R
RICKENBACK AFB PTCLDY    64  62  94 CALM      29.81S
NEWARK         CLOUDY    65  62  90 E5        29.82S
MARION         CLOUDY    63  60  90 S5        29.83S
LANCASTER      MOCLDY    65  62  90 E5        29.82S
ZANESVILLE     MOCLDY    64  60  87 SE7       29.83S
NEW PHILLY     CLOUDY    63  61  93 SE7       29.85S
$$


USA.gov is the U.S. government's official web portal to all federal, state and local government web resources and services.